This is the latest recevied weather packets stored in our database for station/object KG7MRB. If no packets are shown the sender has not sent any weather packets the latest 10 day(s).
| Time | Temp. | Humidity | Pressure | Rain* | Wind** | Luminosity | Snow |
|---|---|---|---|---|---|---|---|
| 1777594215 | 23.33° C | 40% | 1035.7 hPa | 0 mm | - | 174 W/m² | - |
| 1777593910 | 22.78° C | 44% | 1035.8 hPa | 0 mm | - | 222 W/m² | - |
| 1777593607 | 22.78° C | 44% | 1035.7 hPa | 0 mm | - | 207 W/m² | - |
| 1777593303 | 23.33° C | 43% | 1035.9 hPa | 0 mm | - | 196 W/m² | - |
| 1777592997 | 22.78° C | 43% | 1035.8 hPa | 0 mm | - | 197 W/m² | - |
| 1777592692 | 23.33° C | 46% | 1035.8 hPa | 0 mm | - | 165 W/m² | - |
| 1777592388 | 23.89° C | 44% | 1035.7 hPa | 0 mm | - | 245 W/m² | - |
| 1777592083 | 23.33° C | 45% | 1035.9 hPa | 0 mm | - | 288 W/m² | - |
| 1777591781 | 23.89° C | 44% | 1035.9 hPa | 0 mm | - | 381 W/m² | - |
| 1777591476 | 23.89° C | 45% | 1036 hPa | 0 mm | - | 415 W/m² | - |
| 1777591173 | 23.89° C | 45% | 1036.1 hPa | 0 mm | - | 445 W/m² | - |
| 1777590867 | 23.89° C | 46% | 1036 hPa | 0 mm | - | 426 W/m² | - |
| 1777590564 | 23.89° C | 44% | 1036.1 hPa | 0 mm | - | 371 W/m² | - |
| 1777590260 | 23.33° C | 45% | 1036.3 hPa | 0 mm | - | 398 W/m² | - |
| 1777589958 | 23.89° C | 45% | 1036.4 hPa | 0 mm | - | 461 W/m² | - |
| 1777589654 | 23.89° C | 44% | 1036.5 hPa | 0 mm | - | 415 W/m² | - |
| 1777589351 | 23.89° C | 48% | 1036.6 hPa | 0 mm | - | 537 W/m² | - |
| 1777589048 | 23.89° C | 46% | 1036.7 hPa | 0 mm | - | 534 W/m² | - |
| 1777588744 | 24.44° C | 46% | 1036.6 hPa | 0 mm | - | 517 W/m² | - |
| 1777588440 | 23.89° C | 45% | 1036.5 hPa | 0 mm | - | 499 W/m² | - |
| 1777588135 | 25° C | 45% | 1036.8 hPa | 0 mm | - | 541 W/m² | - |
| 1777587832 | 23.89° C | 45% | 1036.7 hPa | 0 mm | - | 592 W/m² | - |
| 1777587531 | 23.89° C | 44% | 1036.9 hPa | 0 mm | - | 545 W/m² | - |
| 1777587227 | 24.44° C | 43% | 1036.8 hPa | 0 mm | - | 568 W/m² | - |
| 1777586923 | 23.89° C | 43% | 1036.7 hPa | 0 mm | - | 509 W/m² | - |
* Rain latest hour (hover to see other rain measurements)
** Current wind speed in m/s (hover to see current wind gust speed)